SCP
-0 -0 0 -0 0 -0 0 -0 -0 -0 -0 -0 0 0 0 0 0 0 0 0 0 0 0 0 0 0 -0 -0 -0 -0 -0 -0 -0 0 -0 0 -0 -0 0 -0 -0 -0 -0 -0
-0 0 -0 -0 -0 -0 -0 -0 -0 -0 0 0 0 0 -0 0 0 -0 -0 0 0 -0 0 0 0 0 -0 -0 -0 -0 -0 0 0 0 0 0 0 0 0 0 0 0 0 0
0 0 -0 0 -0 0 0 0 0 0 0 0 0 0 0 0 0 0 -0 -0 -0 0 0 0 0 0 0 -0 -0 -0 -0 -0 -0 0 0 0 0 0 0 0 0 0 0 0
0 -0 -0 0 0 0 0 0 -0 0 -0 0 0 0 -0 0 -0 0 0 0 0 -0 -0 -0 0 0 0 0 0 0 0 -0 0 0 0 0 0 0 0 0 0 0 0 1
0 0 0 0 -0 0 0 0 -0 0 0 0 0 0 0 0 0 -0 0 0 0 0 0 0 0 0 0 0 0 0 0 -0 0 0 0 0 0 0 0 0 0 0 0 0
0 0 0 -0 0 -0 0 0 0 0 0 0 0 0 -0 0 0 0 0 -0 0 0 0 0 0 0 0 0 0 0 0 0 0 1 1 1 0 0 0 0 0 0 1 1
0 0 -0 -0 0 0 0 0 0 0 0 0 0 0 0 -0 0 0 -0 0 0 0 0 0 0 -0 -0 -0 0 0 0 0 0 0 1 1 0 0 0 0 1 1 1 1
0 0 0 0 0 0 0 0 0 0 0 0 0 0 0 0 0 0 1 0 0 0 0 0 0 0 0 0 0 0 0 0 0 0 0 1 1 1 1 1 1 1 1 1
0 0 0 0 0 0 0 0 0 0 0 0 0 0 0 0 0 0 0 0 0 0 0 0 0 0 0 0 0 0 1 0 1 1 1 1 1 2 2 1 1 1 1 1
0 0 0 0 0 0 0 0 0 0 0 0 0 0 0 0 0 0 0 0 0 0 0 0 0 0 0 0 0 0 1 1 0 0 0 0 0 1 1 1 1 2 1 1
0 0 0 0 0 0 0 0 0 0 0 0 0 0 0 0 0 0 0 0 0 0 0 0 0 0 0 0 0 0 0 0 0 0 0 0 0 1 1 1 1 1 1 1
0 0 0 0 0 0 0 0 0 0 0 0 0 0 0 0 0 0 0 0 0 0 0 0 0 0 0 0 0 0 0 0 0 0 0 0 0 0 0 0 0 0 0 0
0 0 0 0 0 0 0 0 0 0 0 0 0 0 0 0 0 0 0 0 0 0 0 0 0 0 0 0 0 0 0 0 0 0 0 0 0 0 0 0 0 0 0 0
0 0 0 0 0 0 0 0 0 0 0 0 0 0 0 0 0 0 0 0 0 0 0 0 0 0 0 0 0 0 0 0 0 0 0 0 0 0 0 0 0 0 0 0
0 0 0 0 0 0 0 0 0 0 0 0 0 0 0 0 0 0 0 0 0 0 0 0 0 0 0 0 0 0 0 0 0 0 0 0 0 0 0 0 0 0 0 0
0 0 0 0 0 0 0 0 0 0 0 0 0 0 0 0 0 0 0 0 0 0 0 0 0 0 0 0 0 0 0 0 0 0 0 0 0 0 0 0 0 0 0 0
0 0 0 0 0 0 0 0 0 0 0 0 0 0 0 0 0 0 0 0 0 0 0 0 0 0 0 0 0 0 0 0 0 0 0 0 0 0 0 0 0 0 0 0
0 0 0 0 0 0 0 0 0 0 0 0 0 0 0 0 0 0 0 0 0 0 0 0 0 0 0 0 0 0 0 0 0 0 0 0 0 0 0 0 0 0 0 0
0 0 0 0 0 0 0 0 0 0 0 0 0 0 0 0 0 0 0 0 0 0 0 0 0 0 0 0 0 0 0 0 0 0 0 0 0 0 0 0 0 0 0 0
0 0 0 0 0 0 0 0 0 0 0 0 0 0 0 0 0 0 0 0 0 0 0 0 0 0 0 0 0 0 0 0 0 0 0 0 0 0 0 0 0 0 0 0
0 0 0 0 0 0 0 0 0 0 0 0 0 0 0 0 0 0 0 0 0 0 0 0 0 0 0 0 0 0 0 0 0 0 0 0 0 0 0 0 0 0 0 0
0 0 0 0 0 0 0 0 0 0 0 0 0 0 0 0 0 0 0 0 0 0 0 0 0 0 0 0 0 0 0 0 0 0 0 0 0 0 0 0 0 0 0 0
0 0 0 0 0 0 0 0 0 0 0 0 0 0 0 0 0 0 0 0 0 0 0 0 0 0 0 0 0 0 0 0 0 0 0 0 0 0 0 0 0 0 0 0
0 0 0 0 0 0 0 0 0 0 0 0 0 0 0 0 0 0 0 0 0 0 0 0 0 0 0 0 0 0 0 0 0 0 0 0 0 0 0 0 0 0 0 0
0 0 0 0 0 0 0 0 0 0 0 0 0 0 0 0 0 0 0 0 0 0 0 0 0 0 0 0 0 0 0 0 0 0 0 0 0 0 0 0 0 0 0 0
0 0 0 0 0 0 0 0 0 0 0 0 0 0 0 0 0 0 0 0 0 0 0 0 0 0 0 0 0 0 0 0 0 0 0 0 0 0 0 0 0 0 0 0
Wind_Speed_500mb
3 7 12 17 12 7 3 4 1 6 4 12 5 5 10 31 31 37 44 51 54 59 50 49 55 49 53 53 47 50 49 40 42 48 42 41 38 36 35 34 31 33 32 34
8 9 12 9 9 5 4 1 6 6 10 13 6 9 9 18 26 46 55 59 67 59 54 52 50 53 54 54 55 52 43 49 45 44 45 47 46 44 40 39 40 40 39 39
11 8 6 10 9 9 2 8 7 6 7 15 13 10 5 5 19 27 45 58 51 65 63 58 57 53 51 51 50 52 50 47 45 47 46 49 52 53 51 43 47 41 43 47
10 10 6 4 3 11 6 4 3 11 8 8 6 7 9 4 7 16 46 54 62 58 58 57 56 55 54 51 51 50 48 43 39 45 47 52 50 54 49 47 48 43 42 46
11 2 4 5 9 11 5 6 5 5 9 9 6 9 11 4 13 15 32 60 64 61 58 54 53 48 43 34 32 39 36 38 45 43 38 41 45 51 45 52 53 40 37 40
11 5 6 13 6 0 11 11 14 9 7 5 4 10 11 13 25 10 11 44 59 57 54 49 44 39 35 35 33 35 38 34 33 36 29 29 31 33 41 43 44 43 43 43
6 5 6 6 8 4 12 13 7 8 9 9 1 6 14 11 5 21 28 46 52 51 47 45 47 43 40 41 40 34 29 28 24 24 21 17 22 26 27 30 34 37 38 40
10 7 5 4 11 13 7 12 11 5 4 8 6 6 7 13 20 32 44 51 49 48 46 45 43 44 39 34 34 35 35 31 25 23 18 18 24 29 33 35 37 40 40 43
10 8 4 3 5 9 7 7 8 14 5 5 7 11 6 11 9 37 36 48 53 54 51 50 42 37 34 32 32 32 28 23 23 20 20 24 32 38 44 49 52 51 52 55
14 6 4 6 6 22 10 12 7 7 4 5 10 9 9 4 9 12 21 46 57 55 51 47 40 37 36 32 31 29 25 23 21 25 31 36 37 39 47 56 59 57 60 64
9 7 8 2 7 12 4 5 14 11 7 10 2 12 12 15 19 25 38 62 64 61 54 47 44 40 37 35 32 30 27 28 31 31 26 34 41 51 52 54 60 66 65 64
11 10 6 2 9 3 3 9 11 10 8 1 7 12 4 12 20 30 33 54 59 59 52 48 45 42 39 35 34 31 27 28 26 29 32 39 51 59 61 60 62 67 73 79
17 1 7 14 12 6 11 5 9 11 7 12 12 12 3 6 11 30 34 44 51 55 50 46 42 39 38 35 31 29 27 26 26 28 37 47 55 59 62 66 69 68 69 69
20 8 14 17 16 10 10 6 7 11 8 9 11 11 10 9 10 21 34 46 54 52 45 40 37 37 34 28 24 23 21 24 31 45 50 56 59 62 68 72 69 68 68 75
9 10 7 8 7 8 9 10 11 6 9 10 6 11 14 14 14 23 34 37 42 43 41 39 36 32 30 27 22 22 30 39 52 51 54 56 62 72 76 72 65 67 74 72
6 5 7 10 7 11 8 8 10 6 7 4 3 12 14 15 17 24 31 39 39 37 32 30 29 28 25 21 25 30 42 52 53 50 54 61 73 76 80 73 65 66 67 61
8 13 6 7 5 7 6 15 10 6 4 10 9 15 11 8 4 16 29 30 31 31 30 28 25 23 25 27 32 47 51 54 54 55 61 67 71 78 79 72 63 59 56 57
12 10 7 7 4 1 12 7 8 13 7 9 5 5 3 13 19 20 22 23 19 20 20 20 23 27 32 38 48 58 59 58 60 62 66 71 79 79 73 63 55 49 52 54
8 11 7 10 7 9 2 9 14 14 12 11 10 7 17 29 30 18 21 18 13 11 16 25 31 36 41 50 60 65 64 66 62 69 71 78 80 77 62 50 46 49 49 52
14 15 10 6 10 15 15 8 19 13 4 20 21 22 27 13 6 8 20 14 12 14 18 23 31 42 50 53 53 64 72 70 73 69 73 77 72 62 50 45 49 49 49 52
8 8 11 6 7 12 11 8 17 11 14 34 40 43 33 8 7 7 18 10 13 20 27 33 38 45 51 57 62 70 70 67 63 65 67 68 55 49 49 49 50 51 49 50
10 12 7 6 5 11 8 5 13 8 10 40 31 25 19 12 11 8 11 17 24 28 31 33 42 52 59 63 66 72 62 54 52 58 61 58 51 45 49 52 53 49 48 49
3 9 10 12 10 6 8 2 13 17 45 33 31 22 16 13 12 12 16 19 19 24 32 41 53 63 67 56 52 53 43 39 50 55 54 54 51 56 59 58 58 57 51 48
6 5 8 7 4 5 15 25 32 30 32 27 19 13 8 6 10 13 13 16 22 33 42 46 48 50 52 48 41 40 41 46 52 55 51 51 49 52 56 53 53 49 49 46
7 7 9 2 3 9 11 20 25 25 22 17 14 11 10 8 8 9 13 21 25 29 34 38 43 44 45 47 48 48 51 53 54 54 49 44 40 46 48 46 45 45 42 37
10 12 8 8 21 9 16 18 20 19 15 12 6 3 1 4 11 19 23 21 25 32 34 37 40 43 44 42 42 44 44 45 44 43 45 38 37 41 46 50 53 43 33 27
Wind_Direction_500mb
52 76 221 219 195 165 231 291 90 272 67 90 185 97 154 170 171 176 190 198 204 216 218 219 216 223 224 225 225 228 228 231 234 235 238 240 244 244 245 248 250 254 258 260
30 225 216 207 174 178 168 145 289 283 26 97 93 56 124 185 201 194 193 203 211 213 215 220 221 220 225 228 232 234 241 243 245 243 252 253 257 256 259 262 262 258 260 263
171 222 91 197 152 146 111 176 157 143 56 45 99 3 4 145 225 220 217 220 220 218 216 218 224 229 233 235 237 246 245 250 254 256 256 254 260 265 266 273 273 262 270 274
230 268 210 171 147 131 186 213 96 111 91 169 51 233 276 204 239 205 220 221 225 222 221 223 225 229 236 243 245 249 254 256 264 261 265 261 264 272 275 277 284 289 281 274
248 254 116 137 210 177 178 103 61 56 91 101 4 92 253 179 233 221 213 216 223 222 220 221 225 231 236 240 246 250 248 253 256 260 271 274 272 279 286 280 280 291 297 290
246 278 186 201 85 17 128 78 48 57 87 55 223 140 276 192 210 158 198 208 216 215 217 222 223 228 224 226 227 227 234 242 250 255 271 278 284 289 290 293 288 288 288 287
331 268 291 163 107 42 72 57 5 5 12 209 236 86 243 289 217 175 173 193 206 207 208 215 217 215 212 209 213 215 216 228 237 254 263 285 299 297 295 303 299 297 297 292
154 306 199 180 181 168 69 134 143 196 232 268 313 244 249 279 213 158 182 183 186 191 192 201 199 197 200 208 217 218 227 233 245 256 259 286 299 296 297 297 300 297 295 299
144 266 271 204 133 122 177 70 148 104 27 31 291 296 311 18 131 147 165 175 180 183 190 194 188 195 202 207 217 221 230 229 238 241 258 269 284 286 292 294 293 291 289 296
203 102 35 120 101 45 119 148 77 17 136 276 304 283 243 154 223 164 163 182 189 188 188 189 190 197 199 203 210 214 219 225 241 253 271 279 283 287 291 290 290 289 288 285
143 102 271 85 31 166 90 85 55 109 109 160 247 273 216 213 196 191 192 195 193 189 189 190 193 194 198 204 204 206 222 239 252 259 270 286 297 302 296 285 280 285 287 287
184 125 130 137 307 263 121 133 131 122 222 123 152 271 281 256 218 204 206 203 199 194 193 195 198 201 209 210 214 220 226 235 246 261 280 295 296 299 299 294 287 285 283 282
182 311 68 357 359 1 79 102 105 105 89 187 143 260 299 321 195 217 211 204 199 197 199 199 201 206 209 199 210 219 227 243 260 285 296 298 303 306 304 298 292 287 285 286
123 103 157 186 194 139 137 143 133 113 112 172 222 290 306 315 229 192 206 207 197 198 195 192 185 182 186 201 212 226 246 277 288 293 300 304 312 310 306 300 291 286 285 289
105 109 109 36 106 104 141 161 154 120 156 151 226 212 271 258 237 213 190 183 178 174 173 174 179 191 206 219 235 265 282 293 299 297 301 304 311 309 304 297 287 284 287 289
23 140 127 37 10 121 118 148 125 95 123 301 161 274 238 277 231 220 199 182 178 175 177 185 197 208 222 244 266 286 296 302 293 293 300 307 313 311 309 301 287 282 287 289
84 131 102 172 11 69 2 204 171 125 163 160 206 237 327 331 252 181 171 177 177 181 188 200 212 232 255 266 279 300 300 288 287 293 299 308 311 310 310 303 292 287 288 291
116 90 75 123 49 146 246 329 186 147 179 197 258 240 151 133 113 135 149 156 165 186 198 221 247 263 275 282 287 285 286 286 288 290 298 307 312 310 307 300 291 291 293 293
68 114 82 130 171 284 303 196 161 169 222 203 198 180 141 129 116 105 134 143 160 209 250 267 269 271 276 281 284 282 287 291 285 288 302 309 312 308 304 298 292 294 293 293
59 67 105 135 144 197 236 231 181 109 256 201 158 152 143 130 107 243 175 194 226 256 273 278 274 278 282 285 288 292 293 290 292 296 304 309 310 305 300 297 295 294 295 293
47 33 132 136 190 281 266 275 153 129 237 169 168 163 163 154 169 136 200 236 249 269 276 281 285 292 297 300 295 293 292 286 294 299 306 309 307 301 299 296 295 296 296 295
148 135 166 98 110 257 7 123 162 210 121 157 160 166 163 148 153 188 231 254 267 280 291 299 300 301 302 304 303 297 290 294 299 304 308 308 301 299 300 299 296 297 297 296
95 167 174 170 211 271 332 320 114 144 132 132 140 150 166 188 215 239 250 264 288 307 312 311 312 313 312 314 312 302 300 303 308 307 307 307 300 300 299 295 293 290 290 298
16 136 101 95 295 15 76 104 115 132 136 141 151 162 186 255 246 249 278 298 306 311 312 316 319 323 324 327 324 314 307 306 308 305 304 306 304 307 303 295 291 290 290 294
180 104 131 42 328 80 96 120 124 134 142 154 167 191 221 243 263 281 294 308 316 319 320 317 322 324 327 325 320 314 310 308 307 305 302 306 304 319 315 305 300 294 287 287
179 160 145 204 185 156 163 146 155 158 157 166 179 166 336 304 300 303 309 309 310 313 318 322 319 322 327 328 330 325 323 322 318 316 311 302 305 308 316 310 309 301 280 265
Wind_Speed_850mb
3 7 12 17 12 7 3 4 1 6 4 12 5 5 10 31 31 37 44 51 54 59 50 49 55 49 53 53 47 50 49 40 42 48 42 41 38 36 35 34 31 33 32 34
8 9 12 9 9 5 4 1 6 6 10 13 6 9 9 18 26 46 55 59 67 59 54 52 50 53 54 54 55 52 43 49 45 44 45 47 46 44 40 39 40 40 39 39
11 8 6 10 9 9 2 8 7 6 7 15 13 10 5 5 19 27 45 58 51 65 63 58 57 53 51 51 50 52 50 47 45 47 46 49 52 53 51 43 47 41 43 47
10 10 6 4 3 11 6 4 3 11 8 8 6 7 9 4 7 16 46 54 62 58 58 57 56 55 54 51 51 50 48 43 39 45 47 52 50 54 49 47 48 43 42 46
11 2 4 5 9 11 5 6 5 5 9 9 6 9 11 4 13 15 32 60 64 61 58 54 53 48 43 34 32 39 36 38 45 43 38 41 45 51 45 52 53 40 37 40
11 5 6 13 6 0 11 11 14 9 7 5 4 10 11 13 25 10 11 44 59 57 54 49 44 39 35 35 33 35 38 34 33 36 29 29 31 33 41 43 44 43 43 43
6 5 6 6 8 4 12 13 7 8 9 9 1 6 14 11 5 21 28 46 52 51 47 45 47 43 40 41 40 34 29 28 24 24 21 17 22 26 27 30 34 37 38 40
10 7 5 4 11 13 7 12 11 5 4 8 6 6 7 13 20 32 44 51 49 48 46 45 43 44 39 34 34 35 35 31 25 23 18 18 24 29 33 35 37 40 40 43
10 8 4 3 5 9 7 7 8 14 5 5 7 11 6 11 9 37 36 48 53 54 51 50 42 37 34 32 32 32 28 23 23 20 20 24 32 38 44 49 52 51 52 55
14 6 4 6 6 22 10 12 7 7 4 5 10 9 9 4 9 12 21 46 57 55 51 47 40 37 36 32 31 29 25 23 21 25 31 36 37 39 47 56 59 57 60 64
9 7 8 2 7 12 4 5 14 11 7 10 2 12 12 15 19 25 38 62 64 61 54 47 44 40 37 35 32 30 27 28 31 31 26 34 41 51 52 54 60 66 65 64
11 10 6 2 9 3 3 9 11 10 8 1 7 12 4 12 20 30 33 54 59 59 52 48 45 42 39 35 34 31 27 28 26 29 32 39 51 59 61 60 62 67 73 79
17 1 7 14 12 6 11 5 9 11 7 12 12 12 3 6 11 30 34 44 51 55 50 46 42 39 38 35 31 29 27 26 26 28 37 47 55 59 62 66 69 68 69 69
20 8 14 17 16 10 10 6 7 11 8 9 11 11 10 9 10 21 34 46 54 52 45 40 37 37 34 28 24 23 21 24 31 45 50 56 59 62 68 72 69 68 68 75
9 10 7 8 7 8 9 10 11 6 9 10 6 11 14 14 14 23 34 37 42 43 41 39 36 32 30 27 22 22 30 39 52 51 54 56 62 72 76 72 65 67 74 72
6 5 7 10 7 11 8 8 10 6 7 4 3 12 14 15 17 24 31 39 39 37 32 30 29 28 25 21 25 30 42 52 53 50 54 61 73 76 80 73 65 66 67 61
8 13 6 7 5 7 6 15 10 6 4 10 9 15 11 8 4 16 29 30 31 31 30 28 25 23 25 27 32 47 51 54 54 55 61 67 71 78 79 72 63 59 56 57
12 10 7 7 4 1 12 7 8 13 7 9 5 5 3 13 19 20 22 23 19 20 20 20 23 27 32 38 48 58 59 58 60 62 66 71 79 79 73 63 55 49 52 54
8 11 7 10 7 9 2 9 14 14 12 11 10 7 17 29 30 18 21 18 13 11 16 25 31 36 41 50 60 65 64 66 62 69 71 78 80 77 62 50 46 49 49 52
14 15 10 6 10 15 15 8 19 13 4 20 21 22 27 13 6 8 20 14 12 14 18 23 31 42 50 53 53 64 72 70 73 69 73 77 72 62 50 45 49 49 49 52
8 8 11 6 7 12 11 8 17 11 14 34 40 43 33 8 7 7 18 10 13 20 27 33 38 45 51 57 62 70 70 67 63 65 67 68 55 49 49 49 50 51 49 50
10 12 7 6 5 11 8 5 13 8 10 40 31 25 19 12 11 8 11 17 24 28 31 33 42 52 59 63 66 72 62 54 52 58 61 58 51 45 49 52 53 49 48 49
3 9 10 12 10 6 8 2 13 17 45 33 31 22 16 13 12 12 16 19 19 24 32 41 53 63 67 56 52 53 43 39 50 55 54 54 51 56 59 58 58 57 51 48
6 5 8 7 4 5 15 25 32 30 32 27 19 13 8 6 10 13 13 16 22 33 42 46 48 50 52 48 41 40 41 46 52 55 51 51 49 52 56 53 53 49 49 46
7 7 9 2 3 9 11 20 25 25 22 17 14 11 10 8 8 9 13 21 25 29 34 38 43 44 45 47 48 48 51 53 54 54 49 44 40 46 48 46 45 45 42 37
10 12 8 8 21 9 16 18 20 19 15 12 6 3 1 4 11 19 23 21 25 32 34 37 40 43 44 42 42 44 44 45 44 43 45 38 37 41 46 50 53 43 33 27
Wind_Direction_850mb
52 76 221 219 195 165 231 291 90 272 67 90 185 97 154 170 171 176 190 198 204 216 218 219 216 223 224 225 225 228 228 231 234 235 238 240 244 244 245 248 250 254 258 260
30 225 216 207 174 178 168 145 289 283 26 97 93 56 124 185 201 194 193 203 211 213 215 220 221 220 225 228 232 234 241 243 245 243 252 253 257 256 259 262 262 258 260 263
171 222 91 197 152 146 111 176 157 143 56 45 99 3 4 145 225 220 217 220 220 218 216 218 224 229 233 235 237 246 245 250 254 256 256 254 260 265 266 273 273 262 270 274
230 268 210 171 147 131 186 213 96 111 91 169 51 233 276 204 239 205 220 221 225 222 221 223 225 229 236 243 245 249 254 256 264 261 265 261 264 272 275 277 284 289 281 274
248 254 116 137 210 177 178 103 61 56 91 101 4 92 253 179 233 221 213 216 223 222 220 221 225 231 236 240 246 250 248 253 256 260 271 274 272 279 286 280 280 291 297 290
246 278 186 201 85 17 128 78 48 57 87 55 223 140 276 192 210 158 198 208 216 215 217 222 223 228 224 226 227 227 234 242 250 255 271 278 284 289 290 293 288 288 288 287
331 268 291 163 107 42 72 57 5 5 12 209 236 86 243 289 217 175 173 193 206 207 208 215 217 215 212 209 213 215 216 228 237 254 263 285 299 297 295 303 299 297 297 292
154 306 199 180 181 168 69 134 143 196 232 268 313 244 249 279 213 158 182 183 186 191 192 201 199 197 200 208 217 218 227 233 245 256 259 286 299 296 297 297 300 297 295 299
144 266 271 204 133 122 177 70 148 104 27 31 291 296 311 18 131 147 165 175 180 183 190 194 188 195 202 207 217 221 230 229 238 241 258 269 284 286 292 294 293 291 289 296
203 102 35 120 101 45 119 148 77 17 136 276 304 283 243 154 223 164 163 182 189 188 188 189 190 197 199 203 210 214 219 225 241 253 271 279 283 287 291 290 290 289 288 285
143 102 271 85 31 166 90 85 55 109 109 160 247 273 216 213 196 191 192 195 193 189 189 190 193 194 198 204 204 206 222 239 252 259 270 286 297 302 296 285 280 285 287 287
184 125 130 137 307 263 121 133 131 122 222 123 152 271 281 256 218 204 206 203 199 194 193 195 198 201 209 210 214 220 226 235 246 261 280 295 296 299 299 294 287 285 283 282
182 311 68 357 359 1 79 102 105 105 89 187 143 260 299 321 195 217 211 204 199 197 199 199 201 206 209 199 210 219 227 243 260 285 296 298 303 306 304 298 292 287 285 286
123 103 157 186 194 139 137 143 133 113 112 172 222 290 306 315 229 192 206 207 197 198 195 192 185 182 186 201 212 226 246 277 288 293 300 304 312 310 306 300 291 286 285 289
105 109 109 36 106 104 141 161 154 120 156 151 226 212 271 258 237 213 190 183 178 174 173 174 179 191 206 219 235 265 282 293 299 297 301 304 311 309 304 297 287 284 287 289
23 140 127 37 10 121 118 148 125 95 123 301 161 274 238 277 231 220 199 182 178 175 177 185 197 208 222 244 266 286 296 302 293 293 300 307 313 311 309 301 287 282 287 289
84 131 102 172 11 69 2 204 171 125 163 160 206 237 327 331 252 181 171 177 177 181 188 200 212 232 255 266 279 300 300 288 287 293 299 308 311 310 310 303 292 287 288 291
116 90 75 123 49 146 246 329 186 147 179 197 258 240 151 133 113 135 149 156 165 186 198 221 247 263 275 282 287 285 286 286 288 290 298 307 312 310 307 300 291 291 293 293
68 114 82 130 171 284 303 196 161 169 222 203 198 180 141 129 116 105 134 143 160 209 250 267 269 271 276 281 284 282 287 291 285 288 302 309 312 308 304 298 292 294 293 293
59 67 105 135 144 197 236 231 181 109 256 201 158 152 143 130 107 243 175 194 226 256 273 278 274 278 282 285 288 292 293 290 292 296 304 309 310 305 300 297 295 294 295 293
47 33 132 136 190 281 266 275 153 129 237 169 168 163 163 154 169 136 200 236 249 269 276 281 285 292 297 300 295 293 292 286 294 299 306 309 307 301 299 296 295 296 296 295
148 135 166 98 110 257 7 123 162 210 121 157 160 166 163 148 153 188 231 254 267 280 291 299 300 301 302 304 303 297 290 294 299 304 308 308 301 299 300 299 296 297 297 296
95 167 174 170 211 271 332 320 114 144 132 132 140 150 166 188 215 239 250 264 288 307 312 311 312 313 312 314 312 302 300 303 308 307 307 307 300 300 299 295 293 290 290 298
16 136 101 95 295 15 76 104 115 132 136 141 151 162 186 255 246 249 278 298 306 311 312 316 319 323 324 327 324 314 307 306 308 305 304 306 304 307 303 295 291 290 290 294
180 104 131 42 328 80 96 120 124 134 142 154 167 191 221 243 263 281 294 308 316 319 320 317 322 324 327 325 320 314 310 308 307 305 302 306 304 319 315 305 300 294 287 287
179 160 145 204 185 156 163 146 155 158 157 166 179 166 336 304 300 303 309 309 310 313 318 322 319 322 327 328 330 325 323 322 318 316 311 302 305 308 316 310 309 301 280 265